AI4ZL Weather Reports


time (UTC)temp
C
wind
direction
speed
KPH
gust
KPH
rain 1hr
cm
rain 24hr
cm
rain mn
cm
humidity
%
barometer
mb
20260905000242 32 0.0 0.0 0.00 0.00 0.00 76 1014.4
20260904235258 33 0.0 0.0 0.00 0.00 0.00 71 1014.4
20260904234232 34 0.0 0.0 0.00 0.00 0.00 72 1014.4
20260904233246 35 0.0 0.0 0.00 0.00 0.00 68 1014.4
20260904232242 35 352 0.0 1.6 0.00 0.00 0.00 62 1014.4
20260904231257 35 13 1.6 1.6 0.00 0.00 0.00 58 1014.4
20260904230232 36 14 1.6 1.6 0.00 0.00 0.00 58 1014.3
20260904225248 37 357 0.0 1.6 0.00 0.00 0.00 56 1014.2
20260904224302 37 358 0.0 1.6 0.00 0.00 0.00 53 1014.4
20260904223238 38 359 0.0 1.6 0.00 0.00 0.00 52 1014.5
20260904222233 37 14 0.0 1.6 0.00 0.00 0.00 55 1014.5
20260904221308 36 347 0.0 1.6 0.00 0.00 0.00 56 1014.4
20260904220242 37 0 1.6 3.2 0.00 0.00 0.00 53 1014.5
20260904215237 37 9 1.6 3.2 0.00 0.00 0.00 52 1014.4
20260904214232 37 50 1.6 3.2 0.00 0.00 0.00 53 1014.6
20260904213307 37 108 1.6 4.8 0.00 0.00 0.00 54 1014.9
20260904212242 38 16 1.6 3.2 0.00 0.00 0.00 51 1014.9
20260904211257 38 330 1.6 3.2 0.00 0.00 0.00 51 1014.9
20260904210252 38 333 1.6 3.2 0.00 0.00 0.00 52 1015.0
20260904205247 38 312 1.6 4.8 0.00 0.00 0.00 49 1015.2
20260904204242 38 49 1.6 3.2 0.00 0.00 0.00 49 1015.4
20260904203258 38 257 3.2 6.4 0.00 0.00 0.00 50 1015.5
20260904202232 38 278 1.6 4.8 0.00 0.00 0.00 49 1015.4
20260904201246 38 271 3.2 6.4 0.00 0.00 0.00 50 1015.6
20260904200241 37 152 3.2 4.8 0.00 0.00 0.00 52 1015.8
20260904195235 38 265 1.6 3.2 0.00 0.00 0.00 52 1015.9
20260904194231 37 13 1.6 3.2 0.00 0.00 0.00 52 1016.1
20260904193306 37 22 1.6 3.2 0.00 0.00 0.00 53 1016.3
20260904192240 38 14 3.2 6.4 0.00 0.00 0.00 52 1016.5
20260904191235 38 312 1.6 3.2 0.00 0.00 0.00 53 1016.6
20260904190231 36 45 1.6 3.2 0.00 0.00 0.00 56 1016.7
20260904185247 36 54 3.2 4.8 0.00 0.00 0.00 56 1016.8
20260904184243 36 276 1.6 3.2 0.00 0.00 0.00 56 1017.0
20260904183239 36 307 1.6 6.4 0.00 0.00 0.00 55 1017.0
20260904182236 36 348 1.6 3.2 0.00 0.00 0.00 55 1017.1
20260904181232 37 17 1.6 4.8 0.00 0.00 0.00 54 1017.2
20260904180248 37 315 1.6 3.2 0.00 0.00 0.00 54 1017.1
20260904175244 37 296 3.2 6.4 0.00 0.00 0.00 54 1017.2
20260904174240 37 320 1.6 3.2 0.00 0.00 0.00 55 1017.3
20260904173257 37 5 1.6 3.2 0.00 0.00 0.00 54 1017.5
20260904172233 37 278 1.6 4.8 0.00 0.00 0.00 54 1017.6
20260904171250 36 271 3.2 6.4 0.00 0.00 0.00 54 1017.7
20260904170245 37 324 1.6 3.2 0.00 0.00 0.00 54 1017.6
20260904165305 36 330 1.6 4.8 0.00 0.00 0.00 59 1017.8
20260904164258 36 22 1.6 3.2 0.00 0.00 0.00 60 1017.8
20260904163253 35 28 3.2 6.4 0.00 0.00 0.00 63 1017.9
20260904162248 35 24 1.6 4.8 0.00 0.00 0.00 64 1017.9
20260904161243 35 98 1.6 3.2 0.00 0.00 0.00 61 1017.8
20260904160238 35 327 1.6 3.2 0.00 0.00 0.00 61 1017.9
20260904155232 35 276 3.2 6.4 0.00 0.00 0.00 63 1018.0
20260904154248 35 329 1.6 3.2 0.00 0.00 0.00 67 1018.0
20260904153243 35 290 1.6 3.2 0.00 0.00 0.00 65 1018.0
20260904152238 34 296 3.2 9.7 0.00 0.00 0.00 62 1018.0
20260904151253 33 23 1.6 1.6 0.00 0.00 0.00 67 1017.7
20260904150247 33 356 1.6 3.2 0.00 0.00 0.00 69 1017.8
20260904145242 32 249 1.6 3.2 0.00 0.00 0.00 71 1017.7
20260904144236 32 325 0.0 1.6 0.00 0.00 0.00 70 1017.3
20260904143231 32 98 1.6 3.2 0.00 0.00 0.00 74 1017.5
20260904142247 31 204 1.6 3.2 0.00 0.00 0.00 76 1017.6
20260904141243 31 184 1.6 3.2 0.00 0.00 0.00 78 1017.6
20260904140239 30 104 1.6 3.2 0.00 0.00 0.00 79 1017.5
20260904135236 29 190 1.6 3.2 0.00 0.00 0.00 81 1017.4
20260904134230 30 166 0.0 3.2 0.00 0.00 0.00 81 1017.5
20260904133307 29 105 0.0 1.6 0.00 0.00 0.00 83 1017.5
20260904132241 28 0.0 0.0 0.00 0.00 0.00 83 1017.6
20260904131257 27 0.0 0.0 0.00 0.00 0.00 91 1017.6
20260904130253 26 0.0 0.0 0.00 0.00 0.00 99 1017.6
20260904125249 24 0.0 0.0 0.00 0.00 0.00 99 1017.4
20260904124322 23 0.0 0.0 0.00 0.00 0.00 99 1017.2
20260904123238 23 0.0 0.0 0.00 0.00 0.00 99 1017.2
20260904122253 23 0.0 0.0 0.00 0.00 0.00 99 1017.0
20260904121247 23 0.0 0.0 0.00 0.00 0.00 99 1017.1
20260904120241 22 0.0 0.0 0.00 0.00 0.00 99 1017.0
20260904115235 22 0.0 0.0 0.00 0.00 0.00 99 1016.8
20260904114309 22 0.0 0.0 0.00 0.00 0.00 99 1016.8
20260904113242 22 0.0 0.0 0.00 0.00 0.00 99 1016.6
20260904112237 22 0.0 0.0 0.00 0.00 0.00 99 1016.5
20260904111232 22 0.0 0.0 0.00 0.00 0.00 99 1016.4
20260904110246 22 0.0 0.0 0.00 0.00 0.00 99 1016.4
20260904105242 22 0.0 0.0 0.00 0.00 0.00 99 1016.4
20260904104235 22 0.0 0.0 0.00 0.00 0.00 99 1016.4
20260904103250 23 0.0 0.0 0.00 0.00 0.00 99 1016.4
20260904102244 22 0.0 0.0 0.00 0.00 0.00 99 1016.3
20260904101259 23 0.0 0.0 0.00 0.00 0.00 99 1016.4
20260904100254 22 0.0 0.0 0.00 0.00 0.00 99 1016.3
20260904095249 23 0.0 0.0 0.00 0.00 0.00 99 1016.3
20260904094304 23 0.0 0.0 0.00 0.00 0.00 99 1016.2
20260904093239 23 0.0 0.0 0.00 0.00 0.00 99 1016.1
20260904092234 23 0.0 0.0 0.00 0.00 0.00 99 1016.1
20260904091249 23 0.0 0.0 0.00 0.00 0.00 99 1016.0
20260904090244 23 0.0 0.0 0.00 0.00 0.00 99 1015.9
20260904085238 23 0.0 0.0 0.00 0.00 0.00 99 1015.9
20260904084233 23 0.0 0.0 0.00 0.00 0.00 99 1015.7
20260904083308 23 0.0 0.0 0.00 0.00 0.00 99 1015.6
20260904082243 23 0.0 0.0 0.00 0.00 0.00 99 1015.6
20260904081237 23 0.0 0.0 0.00 0.00 0.00 98 1015.7
20260904080231 23 0.0 0.0 0.00 0.00 0.00 98 1015.7
20260904075246 23 0.0 0.0 0.00 0.00 0.00 98 1015.5
20260904074241 23 0.0 0.0 0.00 0.00 0.00 98 1015.6
20260904073235 24 0.0 0.0 0.00 0.00 0.00 98 1015.7
20260904072309 24 0.0 0.0 0.00 0.00 0.00 98 1015.7
20260904071244 23 0.0 0.0 0.00 0.00 0.00 98 1015.6
20260904070238 24 0.0 0.0 0.00 0.00 0.00 98 1015.8
20260904065233 24 0.0 0.0 0.00 0.00 0.00 98 1015.6
20260904064248 24 0.0 0.0 0.00 0.00 0.00 98 1015.8
20260904063243 24 0.0 0.0 0.00 0.00 0.00 98 1015.9
20260904062238 24 0.0 0.0 0.00 0.00 0.00 98 1015.8
20260904061233 24 0.0 0.0 0.00 0.00 0.00 98 1015.9
20260904060248 24 0.0 0.0 0.00 0.00 0.00 99 1015.9
20260904055242 25 0.0 0.0 0.00 0.00 0.00 99 1015.9
20260904054257 24 0.0 0.0 0.00 0.00 0.00 99 1015.9
20260904053232 24 0.0 0.0 0.00 0.00 0.00 99 1016.0
20260904052307 25 0.0 0.0 0.00 0.00 0.00 99 1016.1
20260904051242 24 0.0 0.0 0.00 0.00 0.00 98 1016.2
20260904050238 25 0.0 0.0 0.00 0.00 0.00 98 1016.2
20260904045235 25 0.0 0.0 0.00 0.00 0.00 98 1016.2
20260904044231 25 0.0 0.0 0.00 0.00 0.00 98 1016.1
20260904043246 25 0.0 0.0 0.00 0.00 0.00 98 1016.2
20260904042241 25 0.0 0.0 0.00 0.00 0.00 98 1016.1
20260904041235 25 0.0 0.0 0.00 0.00 0.00 98 1016.2
20260904040249 25 0.0 0.0 0.00 0.00 0.00 97 1016.4
20260904035244 25 0.0 0.0 0.00 0.00 0.00 97 1016.4
20260904034240 25 0.0 0.0 0.00 0.00 0.00 97 1016.3
20260904033238 25 0.0 0.0 0.00 0.00 0.00 96 1016.2
20260904032232 26 0.0 0.0 0.00 0.00 0.00 96 1016.3
20260904031247 26 0.0 0.0 0.00 0.00 0.00 96 1016.3
20260904030241 26 0.0 0.0 0.00 0.00 0.00 95 1016.4
20260904025236 26 0.0 0.0 0.00 0.00 0.00 94 1016.3
20260904024230 26 0.0 0.0 0.00 0.00 0.00 94 1016.3
20260904023244 26 0.0 0.0 0.00 0.00 0.00 94 1016.2
20260904022239 26 0.0 0.0 0.00 0.00 0.00 94 1016.1
20260904021234 26 0.0 0.0 0.00 0.00 0.00 93 1016.0
20260904020248 27 0.0 0.0 0.00 0.00 0.00 93 1015.8
20260904015243 27 0.0 0.0 0.00 0.00 0.00 93 1015.8
20260904014237 27 0.0 0.0 0.00 0.00 0.00 92 1015.8
20260904013232 27 329 0.0 1.6 0.00 0.00 0.00 91 1015.8
20260904012246 27 0.0 0.0 0.00 0.00 0.00 91 1015.8
20260904011240 28 0.0 0.0 0.00 0.00 0.00 89 1015.6
20260904010235 28 0.0 0.0 0.00 0.00 0.00 87 1015.5
20260904005249 28 0.0 0.0 0.00 0.00 0.00 86 1015.5
20260904004242 29 320 0.0 1.6 0.00 0.00 0.00 84 1015.4
20260904003237 30 0.0 0.0 0.00 0.00 0.00 82 1015.4
20260904002231 31 0.0 0.0 0.00 0.00 0.00 79 1015.4
20260904001245 31 0.0 0.0 0.00 0.00 0.00 76 1015.4